Close Search

Base
°C
Summit
°C

WEATHER AT A GLANCE

Image Slideshow

RMR Village

Revelstoke Mountain Resort -  RMR Village Webcam

Top of The Stoke

Revelstoke Mountain Resort -  Top of The Stoke Webcam

Top of Stellar

Revelstoke Mountain Resort -  Top of Stellar Webcam

Mackenzie Outpost

Revelstoke Mountain Resort -  Mackenzie Outpost Webcam

Ripper

Revelstoke Mountain Resort -  Ripper Webcam
Base
°C
Summit
°C
Wind (Summit)
km/h

Today's Forecast

Subpeak Weather

Time Avg. Air Temp Dew Point Avg. Rel Humidity Avg. 2 Min Wind Speed Max Gust Velocity MGV Time MGV Direction Avg. Spot Wind Velocity
2026-05-03 18:55:007° C-3° C50%8 km/h13 km/h18:54:00NE7 km/h
17:55:007° C-3° C49%7 km/h25 km/h17:52:00SE8 km/h
16:55:007° C-4° C47%4 km/h22 km/h16:53:00N5 km/h
15:55:007° C-3° C50%16 km/h21 km/h15:54:00NW15 km/h
14:55:007° C-3° C51%6 km/h13 km/h14:54:00NE5 km/h
13:55:006° C-3° C51%10 km/h17 km/h13:55:00W8 km/h
12:55:005° C-3° C52%16 km/h22 km/h12:55:00NW16 km/h
11:55:005° C-5° C49%12 km/h16 km/h11:54:00N10 km/h
10:55:005° C-5° C49%10 km/h15 km/h10:55:00NW9 km/h
09:55:004° C-5° C51%7 km/h13 km/h09:55:00NW5 km/h
08:55:004° C-6° C49%13 km/h15 km/h08:51:00NW13 km/h
07:55:003° C-6° C51%15 km/h19 km/h07:52:00NW16 km/h
06:55:003° C-6° C50%16 km/h18 km/h06:54:00NW15 km/h
05:55:003° C-6° C51%21 km/h24 km/h05:51:00NW20 km/h
04:55:003° C-6° C51%18 km/h21 km/h04:55:00NW17 km/h
03:55:003° C-6° C50%16 km/h19 km/h03:51:00NW17 km/h
02:55:003° C-6° C50%19 km/h21 km/h02:53:00W19 km/h
01:55:004° C-6° C49%17 km/h22 km/h01:54:00W17 km/h
00:55:004° C-6° C47%11 km/h17 km/h00:51:00W11 km/h
23:55:004° C-6° C47%14 km/h21 km/h23:52:00W16 km/h
22:55:005° C-6° C45%20 km/h24 km/h22:54:00NW22 km/h
21:55:005° C-6° C43%19 km/h21 km/h21:54:00NW19 km/h
20:55:006° C-7° C42%19 km/h21 km/h20:54:00NW19 km/h
19:55:005° C-6° C43%12 km/h16 km/h19:52:00NW14 km/h

Time Avg. Air Temp Dew Point Avg. Rel Humidity Avg. 2 Min Wind Speed Max Gust Velocity MGV Time MGV Direction Avg. Spot Wind Velocity
2026-05-03 18:55:007° C-3° C50%8 km/h13 km/h18:54:00NE7 km/h
18:50:007° C-3° C50%5 km/h11 km/h18:47:00N5 km/h
18:45:007° C-3° C50%7 km/h14 km/h18:44:00N5 km/h
18:40:007° C-3° C50%8 km/h15 km/h18:39:00NE8 km/h
18:35:007° C-3° C50%6 km/h12 km/h18:35:00N4 km/h
18:30:007° C-3° C50%7 km/h11 km/h18:30:00NE3 km/h
18:25:007° C-3° C50%5 km/h15 km/h18:23:00NW6 km/h
18:20:007° C-3° C50%2 km/h8 km/h18:16:00NW3 km/h
18:15:007° C-3° C49%6 km/h18 km/h18:12:00SE5 km/h
18:10:007° C-3° C49%8 km/h19 km/h18:08:00N12 km/h
18:05:007° C-3° C49%11 km/h19 km/h18:02:00NW11 km/h
18:00:007° C-3° C48%5 km/h12 km/h18:00:00NE4 km/h
17:55:007° C-3° C49%7 km/h25 km/h17:52:00SE8 km/h

We value your privacy
We use cookies to enhance your browsing experience, serve personalized ads or content, and analyze our traffic. By clicking "Allow Cookies", you consent to our use of cookies. For additional details view our Privacy Policy.
Cookie preferences

You can control how your data is used on our website. Learn more below about the cookies we use by reviewing our Privacy Policy.

Your cookie preferences have been saved.